SCP
-0 -0 -0 -0 0 0 0 0 0 0 0 0 0 0 0 0 0 0 0 0 0 0 0 0 0 0 0 0 1 1 1 1 1 1 1 1 1 1 0 0 0 0 0 0
-0 -0 0 0 0 0 0 0 0 0 0 0 0 0 0 0 0 0 0 0 0 0 0 0 0 0 0 0 1 1 1 1 1 1 1 1 1 1 1 0 0 0 0 0
0 0 0 0 0 0 0 0 0 0 0 0 0 0 0 0 0 0 0 0 0 0 0 0 0 0 0 1 1 1 1 1 1 1 1 1 1 1 1 1 1 1 1 0
0 0 0 0 0 0 0 0 0 0 0 0 0 0 0 0 0 0 0 0 0 0 0 0 0 1 1 1 1 1 1 1 1 1 1 1 1 1 1 1 1 1 1 0
0 0 0 0 0 0 0 0 0 0 0 0 0 0 0 0 0 0 0 0 0 0 0 0 0 1 1 1 0 1 1 1 1 1 1 1 1 1 1 1 1 1 1 0
0 0 0 0 0 0 0 0 0 0 0 0 0 0 0 0 0 0 0 0 0 0 0 0 0 0 0 0 0 1 1 1 1 1 1 1 1 1 1 1 1 1 1 1
0 0 0 0 0 0 0 0 0 0 0 0 0 0 0 0 0 0 0 0 0 0 0 0 0 0 0 0 1 1 1 1 1 1 1 1 1 1 1 1 1 1 1 1
0 0 0 0 0 0 0 0 0 0 0 0 0 0 0 0 0 0 0 0 0 0 0 0 0 0 1 1 1 1 1 1 1 1 1 1 1 1 1 1 1 1 1 1
0 0 0 0 0 0 0 0 0 0 0 0 0 0 0 0 0 0 0 0 0 0 0 0 1 1 1 1 1 1 1 1 1 1 1 1 1 1 1 1 1 1 1 1
0 0 0 0 0 0 0 0 0 0 0 0 0 0 0 0 0 0 0 0 0 0 0 1 1 1 1 1 1 1 1 1 1 1 1 1 1 1 1 1 1 1 1 1
0 0 0 0 0 0 0 0 0 0 0 0 0 0 0 0 0 0 0 0 0 0 1 1 1 1 1 1 1 1 1 1 1 1 1 1 1 1 1 1 1 1 1 1
0 0 0 0 0 0 0 0 0 0 0 0 0 0 0 0 0 0 0 0 0 0 1 1 1 1 1 1 1 1 1 1 1 1 1 1 1 1 1 1 1 1 1 1
0 0 0 0 0 0 0 0 0 0 0 0 0 0 0 0 0 0 0 0 0 0 1 1 1 1 1 1 1 1 1 1 1 1 1 1 1 1 1 1 1 1 1 1
0 0 0 0 0 0 0 0 0 0 0 0 0 0 0 0 0 0 0 0 0 0 0 1 1 1 0 0 1 1 1 1 1 1 1 1 1 1 1 1 1 1 1 1
0 0 0 0 0 0 0 0 0 0 0 0 0 0 0 0 0 0 0 0 0 0 0 1 1 1 0 0 0 1 1 1 1 1 1 1 1 1 1 1 1 0 1 0
0 0 0 0 0 0 0 0 0 0 0 0 0 0 0 0 0 0 0 0 0 0 0 0 1 1 0 0 1 1 1 1 1 1 1 1 1 1 1 1 0 0 0 0
0 0 0 0 0 0 0 0 0 0 0 0 0 0 0 0 0 0 0 0 0 0 0 0 1 1 1 1 1 1 1 1 1 1 1 1 1 1 1 1 0 1 1 1
0 0 0 0 0 0 0 0 0 0 0 0 0 0 0 0 0 0 0 0 0 0 0 0 1 1 1 1 1 1 1 1 1 1 1 1 1 1 1 1 1 1 1 1
0 0 0 0 0 0 0 0 0 0 0 0 0 0 0 0 0 0 0 0 0 0 0 1 1 1 1 1 1 1 1 1 0 0 0 0 1 1 1 1 1 1 1 1
0 0 0 0 0 0 0 0 0 0 0 0 0 0 0 0 0 0 0 0 0 0 0 0 1 1 1 1 1 1 1 0 0 0 0 0 0 1 1 1 1 1 1 1
0 0 0 0 0 0 0 0 0 0 0 0 0 0 0 0 0 0 0 0 0 0 0 0 1 1 1 1 1 1 1 0 0 0 0 0 0 0 1 1 1 1 1 1
0 0 0 0 0 0 0 0 0 0 0 0 0 0 0 0 0 0 0 0 0 0 0 0 0 1 1 1 1 1 0 0 0 0 0 0 0 0 1 1 1 1 1 1
0 0 0 0 0 0 0 0 0 0 0 0 0 0 0 0 0 0 0 0 0 0 0 0 0 1 1 0 0 1 0 0 0 0 0 0 0 1 1 1 1 1 1 1
0 0 0 0 0 0 0 0 0 0 0 0 0 0 0 0 0 0 0 0 0 0 0 0 0 0 0 0 0 1 0 0 0 0 0 0 1 1 1 1 1 0 0 0
0 0 0 0 0 0 0 0 0 0 0 0 0 0 0 0 0 0 0 0 0 0 0 0 0 0 0 0 0 0 0 0 0 0 0 0 0 1 1 1 0 0 0 0
0 0 0 0 0 0 0 0 0 0 0 0 0 0 0 0 0 0 0 0 0 0 0 0 0 0 0 0 0 0 0 0 0 0 0 0 0 0 0 0 0 0 0 0
Wind_Speed
10 12 13 12 12 9 7 9 9 7 4 8 10 10 7 6 6 7 7 8 8 8 7 7 7 8 9 8 9 9 8 7 6 5 5 5 5 4 4 3 4 5 4 5
10 13 10 8 9 9 10 11 10 6 4 7 8 10 8 7 8 7 7 8 8 8 8 7 7 8 9 9 9 9 8 8 8 6 5 4 4 4 3 3 3 4 4 4
12 4 6 9 11 12 12 12 9 7 5 8 8 11 10 8 7 6 7 7 7 7 8 8 8 8 8 9 9 7 8 8 8 7 5 4 4 4 4 4 4 4 4 5
10 5 8 11 12 13 11 9 8 8 9 8 8 9 9 8 7 7 7 7 7 7 7 7 7 8 8 8 8 8 8 8 8 8 7 8 6 5 5 4 3 4 4 4
8 8 10 12 12 12 8 5 8 10 11 10 10 11 7 8 8 7 6 6 6 6 7 7 7 7 7 7 7 8 8 8 8 8 8 7 6 5 4 4 4 4 4 4
7 6 8 8 8 9 7 7 8 10 10 13 11 11 7 6 6 5 5 5 5 5 5 5 6 6 6 7 7 7 8 8 8 8 7 7 6 6 5 5 5 4 4 4
10 10 9 8 9 10 10 10 9 10 10 9 6 9 4 1 3 4 4 4 5 5 5 6 7 7 7 7 7 7 7 8 8 8 7 7 7 7 7 6 6 5 4 4
9 9 9 9 10 9 12 13 10 8 8 6 8 8 2 1 1 2 2 2 3 5 5 6 6 6 6 6 6 7 7 7 8 8 7 7 7 6 5 6 5 5 4 4
6 5 7 7 7 9 11 12 10 10 10 9 7 5 4 4 3 3 2 2 2 3 4 5 5 6 6 6 6 6 6 6 7 7 7 7 7 6 5 5 5 4 4 4
5 6 6 7 8 9 9 8 8 10 9 10 9 9 5 5 4 2 2 1 2 3 4 4 4 5 5 5 5 5 5 6 5 6 6 6 6 6 6 5 5 4 4 3
6 7 6 8 9 9 9 10 9 9 9 9 8 4 2 2 2 2 2 1 2 3 4 4 4 4 5 4 4 5 5 5 5 5 5 5 5 6 6 5 5 4 4 4
6 6 7 8 6 5 8 9 10 9 9 10 9 1 5 2 1 1 2 2 3 3 4 4 4 4 4 4 4 4 4 5 5 5 5 5 5 5 5 5 5 5 4 4
5 6 8 9 9 9 10 10 10 9 8 9 10 3 6 3 1 1 2 3 3 4 4 4 4 4 4 4 4 4 4 4 4 5 5 5 5 5 5 5 5 5 4 4
6 8 10 9 4 5 9 10 10 11 10 10 11 7 4 2 1 1 2 2 2 3 3 3 3 3 3 3 3 3 3 3 3 4 4 4 5 5 5 5 5 5 4 4
6 9 10 9 7 7 10 11 12 13 13 12 10 8 5 2 3 2 2 2 2 2 2 2 3 3 3 3 3 2 3 3 3 3 3 3 3 4 4 4 4 4 4 4
5 7 8 9 8 9 10 11 12 13 12 12 11 8 2 1 2 2 2 3 3 3 2 2 2 3 3 3 3 3 2 2 2 2 2 2 2 3 3 4 4 4 4 4
6 6 8 9 8 9 11 10 11 11 10 11 11 7 3 3 3 3 3 3 3 3 3 2 2 2 2 2 2 2 2 2 2 2 2 2 2 3 3 3 3 3 3 4
6 7 6 7 8 12 3 1 5 7 7 7 6 3 3 2 2 1 2 3 3 2 2 2 2 2 2 2 2 3 2 2 2 1 1 2 2 2 3 3 3 3 3 3
6 7 6 6 9 7 4 3 4 6 6 4 4 3 2 2 3 3 1 1 1 1 1 2 2 2 3 3 3 3 3 2 2 2 2 2 2 2 3 3 3 3 3 3
5 7 7 7 9 7 2 3 2 5 6 2 2 2 2 4 6 2 2 0 0 1 1 1 2 2 2 3 3 3 3 2 2 2 2 2 3 3 3 3 3 2 3 3
6 7 9 9 8 3 2 1 3 7 1 3 0 1 2 4 3 2 0 1 1 1 1 2 2 2 2 2 3 3 2 2 2 2 2 2 2 3 3 3 3 3 3 2
6 6 7 7 8 4 2 1 3 3 4 2 1 1 1 1 0 1 1 1 1 2 2 2 2 2 2 2 3 3 2 2 2 2 2 2 2 3 3 3 3 3 3 3
4 4 3 3 2 3 1 2 3 4 3 3 2 1 1 2 1 1 1 1 2 2 2 2 2 2 2 2 3 3 2 2 2 2 2 2 2 2 2 3 3 3 3 3
3 2 4 3 2 2 2 3 4 4 4 3 2 1 2 1 1 1 1 1 1 1 2 2 2 2 2 2 2 2 2 2 2 2 2 2 3 2 2 2 2 2 2 2
3 2 4 4 4 3 2 3 4 3 2 2 1 1 1 1 1 1 1 1 1 1 2 2 2 3 3 3 2 2 2 2 2 3 3 3 3 2 2 2 1 2 1 1
4 5 5 4 2 3 3 3 3 2 2 2 1 1 0 0 0 1 1 1 1 2 2 2 3 3 3 3 2 2 2 3 3 3 3 3 2 2 2 2 2 2 1 3
Wind_Direction
193 215 215 213 222 252 252 240 231 225 212 235 237 241 236 213 212 209 205 200 199 197 191 185 186 186 179 176 180 181 180 172 175 176 184 185 184 185 182 180 176 181 183 175
198 222 226 227 223 232 233 235 232 215 206 251 244 246 236 221 220 221 219 209 205 200 191 188 189 187 183 179 183 181 183 180 185 181 187 191 183 184 177 183 178 187 182 181
221 206 196 211 211 220 229 238 238 233 220 227 244 240 221 213 218 217 222 217 209 204 201 194 193 191 184 184 185 183 183 183 188 180 178 172 169 182 180 186 183 190 191 191
230 211 204 213 216 223 227 230 248 244 239 229 225 251 211 205 213 219 219 214 205 202 201 197 192 190 187 185 183 180 180 182 183 185 188 186 188 190 189 189 179 186 194 193
212 201 208 219 221 225 244 243 243 244 247 255 231 252 222 196 218 219 214 207 201 201 199 194 188 182 184 183 180 179 178 181 182 190 191 195 197 191 182 181 173 191 185 191
231 207 227 234 227 226 236 228 230 236 240 242 235 245 241 205 222 220 207 200 198 200 193 186 176 172 176 180 179 177 179 180 183 189 192 197 196 193 186 182 180 193 190 189
211 208 212 226 216 204 217 225 221 219 221 233 205 237 242 218 242 238 226 207 199 200 190 178 174 173 175 179 179 178 178 181 183 187 193 195 197 194 195 195 191 197 195 191
211 204 194 205 224 217 215 230 244 249 243 227 198 233 203 173 228 252 232 196 192 194 188 182 171 168 169 174 176 174 176 181 184 189 193 197 199 201 200 202 202 198 204 198
221 207 164 193 217 232 217 228 252 266 263 257 228 226 200 207 215 219 203 176 172 176 178 177 167 165 166 167 170 174 172 176 184 190 191 195 198 207 204 195 202 203 208 201
254 234 196 189 207 217 243 234 232 244 250 250 236 230 222 194 207 211 207 183 152 151 149 151 155 155 154 156 161 168 169 174 179 187 192 190 192 199 201 197 196 203 206 205
244 236 202 197 217 213 207 216 232 243 255 263 256 231 81 170 194 198 173 111 118 133 135 137 137 143 142 145 150 159 166 171 178 182 184 186 185 192 195 195 198 198 202 198
224 249 232 219 218 239 233 229 228 238 241 253 267 249 87 106 120 158 140 106 95 104 120 127 131 141 147 148 149 156 167 174 176 178 177 179 187 191 192 195 198 197 198 200
208 231 229 211 199 205 221 224 229 240 249 248 253 227 119 120 125 151 133 117 108 113 120 125 131 138 143 150 155 157 166 173 175 174 173 176 190 193 192 199 197 195 195 204
235 236 248 256 263 215 220 220 223 235 241 246 250 254 203 204 214 194 168 158 134 133 133 131 134 141 144 147 152 160 157 155 162 167 172 175 187 193 195 198 196 196 197 203
235 238 244 260 272 249 238 233 227 234 249 259 263 261 243 231 252 241 207 187 172 174 164 151 146 142 146 146 147 141 147 151 160 167 171 178 182 185 188 195 201 201 205 206
230 250 244 244 243 243 244 241 239 239 245 253 260 261 254 212 236 231 210 204 205 205 196 178 166 160 154 151 152 149 146 153 165 168 176 175 189 195 193 199 204 206 211 214
218 233 241 243 238 242 236 237 238 238 242 249 251 254 199 207 225 225 213 220 225 223 212 201 186 179 175 170 162 163 159 160 176 180 188 196 204 210 204 207 209 214 218 218
232 236 244 248 238 237 222 244 255 248 243 250 258 251 216 224 241 238 228 234 228 221 214 212 197 186 185 179 165 156 151 160 178 184 198 211 212 222 209 206 209 217 219 222
232 234 242 241 239 239 207 211 238 244 243 243 241 226 211 203 227 202 189 233 236 245 238 233 210 193 184 182 171 160 159 173 193 204 215 217 210 223 213 217 218 222 218 220
209 231 241 239 244 242 166 85 318 254 228 165 207 209 214 221 242 182 116 229 258 234 220 223 204 186 179 181 178 172 171 184 211 226 222 218 212 222 221 218 227 228 225 226
198 216 233 240 243 243 52 14 229 234 50 70 72 223 232 247 298 49 149 232 218 202 198 202 196 191 185 187 189 188 193 212 231 236 232 215 213 226 226 216 222 226 228 223
227 227 224 236 240 232 65 202 258 350 1 342 304 276 274 311 83 169 207 215 210 203 199 205 199 190 184 189 202 207 223 234 231 225 223 223 226 234 213 207 215 218 223 217
244 284 280 257 282 38 11 333 344 334 314 309 282 269 250 232 210 211 213 206 206 202 204 211 202 187 191 204 216 221 230 234 229 227 222 226 238 235 214 215 215 211 215 228
202 261 252 244 250 292 322 311 307 310 311 312 298 269 228 215 201 207 224 206 202 208 218 213 200 196 208 221 231 233 225 227 224 223 226 233 231 214 195 225 223 226 221 226
285 233 239 245 264 274 285 314 313 317 327 322 312 275 262 215 213 218 234 245 249 235 229 221 212 208 208 213 228 231 220 217 220 222 224 234 227 205 199 212 232 232 217 271
251 248 252 262 279 281 304 327 324 307 321 321 304 308 283 230 237 232 244 263 252 233 223 219 218 209 202 201 211 219 215 214 218 225 225 224 221 203 212 201 185 134 169 145